DW3195 Weather Reports


time (UTC)temp
F
wind
direction
speed
knots
gust
knots
rain 1hr
in
rain 24hr
in
rain mn
in
humidity
%
barometer
mb
20260831091504 60 0 0.0 0.0 0.00 0.00 0.00 95 923.4
20260831091004 60 0 0.0 0.0 0.00 0.00 0.00 95 923.4
20260831090504 60 0 0.0 0.0 0.00 0.00 0.00 95 923.3
20260831090004 60 0 0.0 0.0 0.00 0.00 0.00 95 923.3
20260831084504 60 0 0.0 0.0 0.00 0.00 0.00 95 923.4
20260831084005 60 0 0.0 0.0 0.00 0.00 0.00 95 923.4
20260831083504 60 0 0.0 0.0 0.00 0.00 0.00 95 923.4
20260831083005 60 0 0.0 0.0 0.00 0.00 0.00 95 923.3
20260831081504 60 0 0.0 0.0 0.00 0.00 0.00 95 923.3
20260831081005 61 0 0.0 0.0 0.00 0.00 0.00 95 923.2
20260831080505 60 0 0.0 0.0 0.00 0.00 0.00 95 923.2
20260831080004 61 0 0.0 0.0 0.00 0.00 0.00 95 923.2
20260831074504 61 0 0.0 0.0 0.00 0.00 0.00 95 923.2
20260831074005 61 0 0.0 0.0 0.00 0.00 0.00 95 923.2
20260831073504 61 0 0.0 0.0 0.00 0.00 0.00 95 923.2
20260831073004 61 0 0.0 0.0 0.00 0.00 0.00 95 923.2
20260831071504 61 0 0.0 0.0 0.00 0.00 0.00 95 923.2
20260831071005 61 0 0.0 0.0 0.00 0.00 0.00 95 923.2
20260831070504 61 0 0.0 0.0 0.00 0.00 0.00 95 923.3
20260831064504 61 0 0.0 0.0 0.00 0.00 0.00 95 923.3
20260831063504 61 0 0.0 0.0 0.00 0.00 0.00 95 923.4
20260831063004 61 0 0.0 0.0 0.00 0.00 0.00 95 923.4
20260831061504 62 0 0.0 0.0 0.00 0.00 0.00 95 923.5
20260831061004 62 0 0.0 0.0 0.00 0.00 0.00 95 923.5
20260831060504 62 0 0.0 0.0 0.00 0.00 0.00 95 923.5
20260831060004 62 0 0.0 0.0 0.00 0.00 0.00 95 923.5
20260831054504 62 0 0.0 0.0 0.00 0.00 0.00 95 923.5
20260831053504 62 0 0.0 0.0 0.00 0.00 0.00 95 923.6
20260831053004 62 0 0.0 0.0 0.00 0.00 0.00 95 923.6
20260831051004 63 0 0.0 0.0 0.00 0.00 0.00 95 923.7
20260831050505 63 0 0.0 0.0 0.00 0.00 0.00 95 923.7
20260831050006 63 0 0.0 0.0 0.00 0.00 0.00 95 923.7
20260831044005 63 0 0.0 0.0 0.00 0.00 0.00 95 923.7
20260831043505 63 0 0.0 0.0 0.00 0.00 0.00 95 923.8
20260831043006 63 0 0.0 0.0 0.00 0.00 0.00 95 923.8
20260831041505 64 0 0.0 0.0 0.00 0.00 0.00 95 923.8
20260831041005 64 0 0.0 0.0 0.00 0.00 0.00 95 923.8
20260831040505 64 0 0.0 0.0 0.00 0.00 0.00 95 923.8
20260831040005 64 0 0.0 0.0 0.00 0.00 0.00 95 923.8
20260831034505 64 0 0.0 0.0 0.00 0.00 0.00 95 923.9
20260831034005 64 0 0.0 0.0 0.00 0.00 0.00 95 923.9
20260831033505 64 0 0.0 0.0 0.00 0.00 0.00 95 924.0
20260831033005 64 0 0.0 0.0 0.00 0.00 0.00 95 924.0
20260831031505 64 0 0.0 0.0 0.00 0.00 0.00 95 924.2
20260831031005 64 0 0.0 0.0 0.00 0.00 0.00 95 924.1
20260831030505 64 0 0.0 0.0 0.00 0.00 0.00 95 924.1
20260831030005 64 0 0.0 0.0 0.00 0.00 0.00 95 924.1
20260831024005 64 0 0.0 0.0 0.00 0.00 0.00 95 924.1
20260831021505 65 0 0.0 0.0 0.00 0.00 0.00 94 924.1
20260831021005 65 0 0.0 0.0 0.00 0.00 0.00 95 924.1
20260831020504 65 0 0.0 0.0 0.00 0.00 0.00 94 924.2
20260831020005 65 0 0.0 0.0 0.00 0.00 0.00 94 924.2
20260831014505 66 0 0.0 0.0 0.00 0.00 0.00 94 924.1
20260831013505 66 0 0.0 0.0 0.00 0.00 0.00 94 924.1
20260831013005 66 0 0.0 0.0 0.00 0.00 0.00 93 924.0
20260831011505 67 0 0.0 0.0 0.00 0.00 0.00 93 924.0
20260831011005 67 0 0.0 0.0 0.00 0.00 0.00 93 924.0
20260831010505 67 0 0.0 0.0 0.00 0.00 0.00 93 924.0
20260831010005 67 0 0.0 0.0 0.00 0.00 0.00 92 923.9
20260831004505 68 0 0.0 0.0 0.00 0.00 0.00 92 923.7
20260831004005 68 0 0.0 0.0 0.00 0.00 0.00 91 923.6
20260831003504 69 0 0.0 0.0 0.00 0.00 0.00 91 923.7
20260831003005 69 0 0.0 0.0 0.00 0.00 0.00 91 923.7
20260831001504 70 0 0.0 0.0 0.00 0.00 0.00 89 923.8
20260831001005 71 0 0.0 0.0 0.00 0.00 0.00 89 923.8
20260830234505 73 0 0.0 0.0 0.00 0.00 0.00 85 924.2
20260830234005 74 0 0.0 0.0 0.00 0.00 0.00 85 924.2
20260830233504 74 0 0.0 0.0 0.00 0.00 0.00 83 924.5
20260830233005 75 0 0.0 0.0 0.00 0.00 0.00 83 924.5
20260830231505 77 0 0.0 0.0 0.00 0.00 0.00 80 925.1
20260830230505 78 0 0.0 0.0 0.00 0.00 0.00 78 925.5
20260830230004 80 0 0.0 0.0 0.00 0.00 0.00 76 925.9
20260830224504 84 0 0.0 0.0 0.00 0.00 0.00 66 927.8
20260830224004 84 0 0.0 0.0 0.00 0.00 0.00 64 928.3
20260830223504 86 0 0.0 0.0 0.00 0.00 0.00 64 928.1
20260830223004 86 0 0.0 0.0 0.00 0.00 0.00 62 928.4
20260830221504 87 0 0.0 0.0 0.00 0.00 0.00 60 929.0
20260830221004 86 0 0.0 0.0 0.00 0.00 0.00 60 929.1
20260830220504 86 0 0.0 0.0 0.00 0.00 0.00 62 928.7
20260830214504 84 0 0.0 0.0 0.00 0.00 0.00 61 928.8
20260830214004 83 0 0.0 0.0 0.00 0.00 0.00 66 927.8
20260830213504 82 0 0.0 0.0 0.00 0.00 0.00 70 927.0
20260830213005 81 0 0.0 0.0 0.00 0.00 0.00 73 926.4
20260830211504 79 0 0.0 0.0 0.00 0.00 0.00 75 926.0
20260830211004 80 0 0.0 0.0 0.00 0.00 0.00 76 926.1
20260830210504 80 0 0.0 0.0 0.00 0.00 0.00 74 926.3
20260830210004 80 0 0.0 0.0 0.00 0.00 0.00 73 926.6
20260830204504 81 0 0.0 0.0 0.00 0.00 0.00 73 926.6
20260830204004 81 0 0.0 0.0 0.00 0.00 0.00 71 927.0
20260830203504 81 0 0.0 0.0 0.00 0.00 0.00 70 927.5
20260830203004 82 0 0.0 0.0 0.00 0.00 0.00 68 927.5
20260830201004 83 0 0.0 0.0 0.00 0.00 0.00 66 928.2
20260830200504 83 0 0.0 0.0 0.00 0.00 0.00 61 929.1
20260830200004 84 0 0.0 0.0 0.00 0.00 0.00 61 929.3
20260830194006 84 0 0.0 0.0 0.00 0.00 0.00 59 929.4
20260830193506 84 0 0.0 0.0 0.00 0.00 0.00 62 929.2
20260830193006 84 0 0.0 0.0 0.00 0.00 0.00 62 929.3
20260830191505 86 0 0.0 0.0 0.00 0.00 0.00 57 930.1
20260830191005 85 0 0.0 0.0 0.00 0.00 0.00 55 930.1
20260830190506 85 0 0.0 0.0 0.00 0.00 0.00 56 930.2
20260830190005 84 0 0.0 0.0 0.00 0.00 0.00 56 930.1
20260830184505 84 0 0.0 0.0 0.00 0.00 0.00 58 930.4
20260830184005 83 0 0.0 0.0 0.00 0.00 0.00 60 929.9
20260830183006 82 0 0.0 0.0 0.00 0.00 0.00 60 930.4
20260830181505 82 0 0.0 0.0 0.00 0.00 0.00 62 930.2
20260830181005 82 0 0.0 0.0 0.00 0.00 0.00 63 929.9
20260830180505 83 0 0.0 0.0 0.00 0.00 0.00 63 930.1
20260830180004 83 0 0.0 0.0 0.00 0.00 0.00 64 929.5
20260830174505 83 0 0.0 0.0 0.00 0.00 0.00 62 930.5
20260830174005 82 0 0.0 0.0 0.00 0.00 0.00 66 930.0
20260830173505 82 0 0.0 0.0 0.00 0.00 0.00 66 930.0
20260830173005 81 0 0.0 0.0 0.00 0.00 0.00 66 929.9
20260830171505 78 0 0.0 0.0 0.00 0.00 0.00 73 928.8
20260830171005 78 0 0.0 0.0 0.00 0.00 0.00 71 929.1
20260830170505 79 0 0.0 0.0 0.00 0.00 0.00 72 928.9
20260830170005 79 0 0.0 0.0 0.00 0.00 0.00 73 928.7
20260830164505 80 0 0.0 0.0 0.00 0.00 0.00 67 929.9
20260830163005 81 0 0.0 0.0 0.00 0.00 0.00 65 930.5
20260830161505 79 0 0.0 0.0 0.00 0.00 0.00 70 929.3
20260830161005 78 0 0.0 0.0 0.00 0.00 0.00 71 929.6
20260830160504 78 0 0.0 0.0 0.00 0.00 0.00 72 929.3
20260830154505 80 0 0.0 0.0 0.00 0.00 0.00 68 930.2
20260830154004 80 0 0.0 0.0 0.00 0.00 0.00 67 930.3
20260830153505 79 0 0.0 0.0 0.00 0.00 0.00 69 929.9
20260830153005 78 0 0.0 0.0 0.00 0.00 0.00 72 929.0
20260830151505 78 0 0.0 0.0 0.00 0.00 0.00 72 929.1
20260830151004 78 0 0.0 0.0 0.00 0.00 0.00 71 929.6
20260830150505 79 0 0.0 0.0 0.00 0.00 0.00 69 929.3
20260830150005 79 0 0.0 0.0 0.00 0.00 0.00 70 929.2
20260830144504 79 0 0.0 0.0 0.00 0.00 0.00 74 928.6
20260830144004 79 0 0.0 0.0 0.00 0.00 0.00 73 928.1
20260830143505 79 0 0.0 0.0 0.00 0.00 0.00 74 928.5
20260830141504 77 0 0.0 0.0 0.00 0.00 0.00 76 927.7
20260830141005 76 0 0.0 0.0 0.00 0.00 0.00 76 928.3
20260830140504 76 0 0.0 0.0 0.00 0.00 0.00 76 928.2
20260830140004 75 0 0.0 0.0 0.00 0.00 0.00 81 927.3
20260830134504 72 0 0.0 0.0 0.00 0.00 0.00 89 925.6
20260830134004 71 0 0.0 0.0 0.00 0.00 0.00 92 925.6
20260830133504 70 0 0.0 0.0 0.00 0.00 0.00 95 925.6
20260830131504 66 0 0.0 0.0 0.00 0.00 0.00 96 925.4
20260830131004 66 0 0.0 0.0 0.00 0.00 0.00 96 925.3
20260830130505 65 0 0.0 0.0 0.00 0.00 0.00 96 925.2
20260830130004 65 0 0.0 0.0 0.00 0.00 0.00 96 925.2
20260830123504 62 0 0.0 0.0 0.00 0.00 0.00 95 925.0
20260830123004 61 0 0.0 0.0 0.00 0.00 0.00 95 925.0
20260830121504 59 0 0.0 0.0 0.00 0.00 0.00 95 925.1
20260830121004 59 0 0.0 0.0 0.00 0.00 0.00 95 925.1
20260830120504 59 0 0.0 0.0 0.00 0.00 0.00 95 925.1
20260830120004 59 0 0.0 0.0 0.00 0.00 0.00 95 925.0
20260830114504 59 0 0.0 0.0 0.00 0.00 0.00 95 924.9
20260830114004 59 0 0.0 0.0 0.00 0.00 0.00 95 924.9
20260830113004 58 0 0.0 0.0 0.00 0.00 0.00 95 924.7
20260830111504 58 0 0.0 0.0 0.00 0.00 0.00 95 924.7
20260830110504 58 0 0.0 0.0 0.00 0.00 0.00 95 924.6
20260830110004 58 0 0.0 0.0 0.00 0.00 0.00 95 924.6
20260830104506 58 0 0.0 0.0 0.00 0.00 0.00 95 924.6
20260830104005 58 0 0.0 0.0 0.00 0.00 0.00 95 924.6
20260830103506 58 0 0.0 0.0 0.00 0.00 0.00 95 924.7
20260830103005 59 0 0.0 0.0 0.00 0.00 0.00 95 924.7
20260830101505 59 0 0.0 0.0 0.00 0.00 0.00 95 924.6
20260830101005 59 0 0.0 0.0 0.00 0.00 0.00 95 924.6
20260830100506 59 0 0.0 0.0 0.00 0.00 0.00 95 924.6
20260830100005 59 0 0.0 0.0 0.00 0.00 0.00 95 924.6
20260830094505 60 0 0.0 0.0 0.00 0.00 0.00 95 924.5
20260830094005 60 0 0.0 0.0 0.00 0.00 0.00 95 924.5
20260830093006 60 0 0.0 0.0 0.00 0.00 0.00 95 924.5